Wind_Speed
12 14 18 23 26 26 24 24 25 24 24 24 23 21 18 15 13 12 11 9 8 7 4 3 2 3 4 7 7 8 8 8 10
14 14 16 21 27 29 27 26 25 26 26 27 26 24 22 19 18 15 13 12 10 8 6 5 3 2 2 1 4 6 6 6 7
16 16 15 17 22 28 30 30 29 28 28 28 27 26 26 25 23 20 18 16 14 11 10 8 7 6 5 4 1 1 3 5 6
18 18 17 18 20 22 29 32 32 31 31 31 29 28 28 28 27 26 23 21 19 17 15 13 11 10 9 8 5 5 3 1 4
22 23 23 22 21 22 24 30 33 33 33 34 32 30 30 29 29 28 27 26 24 22 20 18 16 14 13 11 9 7 8 6 4
18 29 31 27 27 25 26 27 30 35 35 37 37 34 34 32 31 30 30 29 28 26 24 23 21 19 17 15 13 11 10 10 8
19 16 19 34 33 30 29 27 29 31 36 38 39 38 37 36 35 33 33 31 32 30 29 27 25 23 22 20 18 16 14 13 12
24 24 26 23 21 41 40 34 32 32 33 37 40 41 40 40 38 36 37 35 34 33 33 31 30 29 26 25 23 21 19 17 15
29 29 29 29 32 28 24 42 39 37 36 35 38 43 43 43 41 39 38 39 38 37 37 35 33 32 31 29 27 26 24 21 20
35 35 33 33 33 30 33 30 31 44 40 39 37 42 44 45 45 43 41 42 41 41 40 39 37 36 34 33 30 29 28 25 23
40 41 40 40 37 36 35 36 38 36 32 46 46 42 44 44 48 47 45 45 44 45 43 42 40 38 37 36 35 32 31 29 26
46 45 45 45 44 43 40 39 40 40 41 38 29 49 50 46 47 49 49 48 49 47 47 45 43 41 40 39 37 36 33 32 29
55 52 51 50 50 49 48 46 43 45 43 46 46 38 42 53 55 51 48 51 51 51 50 49 47 45 43 41 39 39 36 34 32
60 61 60 58 56 55 55 53 49 52 50 48 50 51 45 44 49 60 56 51 51 54 52 53 52 50 46 45 42 41 39 37 36
66 66 65 66 65 63 61 60 59 57 56 55 53 51 52 53 52 53 48 60 57 52 55 54 56 54 52 48 46 44 43 41 39
70 71 71 71 71 71 70 68 66 65 62 61 59 60 58 60 47 45 47 43 59 60 55 55 57 58 56 54 51 50 47 45 43
77 76 76 77 77 77 76 76 75 72 71 69 65 65 63 59 70 58 49 43 46 52 57 62 58 57 58 57 55 54 52 50 47
84 84 83 82 82 83 83 82 82 80 78 77 76 72 70 67 67 70 56 53 47 52 54 57 62 57 56 56 58 57 56 55 52
89 90 90 90 89 88 89 88 88 88 86 85 83 81 78 77 72 68 68 52 49 55 58 53 64 65 60 55 55 60 59 58 56
96 97 98 97 97 96 95 95 95 95 94 93 90 90 86 86 84 75 75 75 70 60 56 57 63 65 63 67 59 60 61 60 58
Wind_Direction
225 220 217 212 219 220 217 212 212 210 212 210 207 207 209 208 203 198 190 187 181 178 177 161 128 103 79 69 61 67 62 62 60
232 232 227 217 217 218 222 224 221 215 214 217 217 216 216 216 219 214 211 209 207 208 213 213 212 214 229 102 67 61 54 43 47
231 239 240 232 227 223 223 228 229 225 222 219 219 221 223 222 223 225 222 220 221 225 230 230 235 236 245 247 206 10 54 36 26
237 243 246 246 239 236 231 231 231 230 230 230 224 224 227 226 226 228 228 226 224 226 232 235 236 243 249 256 241 249 270 335 7
244 237 242 244 246 242 241 236 235 233 233 234 232 228 228 229 230 233 234 234 234 232 233 236 237 238 245 253 256 250 267 269 285
242 242 243 241 240 244 247 247 241 237 236 236 235 231 232 231 229 232 234 237 239 238 238 240 241 242 242 247 254 257 259 272 273
284 271 245 247 244 243 245 248 250 248 240 239 238 236 234 233 232 231 235 235 239 241 241 241 244 247 247 248 249 253 258 264 272
275 270 271 268 257 246 242 242 247 249 249 243 243 242 240 238 234 236 236 236 237 239 241 241 243 245 249 250 250 249 252 256 262
273 272 271 269 275 273 258 242 244 247 249 250 247 244 242 241 241 238 240 239 239 239 239 242 243 245 247 249 251 253 250 252 257
275 274 271 269 268 267 265 261 255 247 247 248 249 249 244 242 241 241 241 242 242 242 241 240 243 245 247 249 248 250 253 250 254
273 274 273 271 268 266 264 262 258 259 254 248 246 246 252 248 244 240 242 244 242 244 244 244 243 243 245 248 249 248 249 252 250
274 272 271 271 269 267 264 262 257 255 260 261 256 254 249 249 250 245 240 242 244 243 245 243 244 242 242 245 247 249 249 250 252
275 274 272 271 270 269 265 262 259 255 259 260 262 253 254 251 248 249 245 243 243 244 245 245 244 244 242 242 244 248 249 249 252
273 273 273 272 270 268 268 266 261 260 259 257 256 258 266 254 253 248 247 245 245 245 244 246 245 245 243 243 241 245 249 248 250
273 273 271 271 270 269 268 267 266 263 259 257 256 254 254 262 250 255 249 246 245 243 245 245 246 244 244 242 242 240 244 245 247
271 271 270 270 269 269 267 266 266 266 264 261 257 255 252 254 250 245 251 253 245 243 244 244 245 246 244 243 242 241 240 243 244
270 268 267 267 267 267 267 266 265 264 264 264 262 258 255 257 252 254 246 255 258 243 251 242 245 243 244 244 243 244 243 241 242
271 270 268 266 265 265 264 264 265 264 263 262 262 261 259 255 251 259 260 252 247 265 259 251 244 246 243 244 246 244 245 245 242
271 268 267 266 264 263 262 262 262 262 262 261 261 259 260 258 254 252 249 248 255 261 265 256 241 244 244 244 245 247 244 245 245
270 269 268 266 263 261 259 259 259 259 259 259 259 259 257 257 258 250 248 249 251 255 246 246 244 240 241 244 245 248 248 246 245
Height
5858 5860 5861 5863 5864 5867 5868 5869 5870 5872 5874 5875 5876 5878 5880 5882 5882 5883 5884 5884 5884 5885 5885 5885 5886 5886 5886 5886 5885 5884 5883 5882 5881
5854 5856 5859 5860 5860 5862 5864 5866 5867 5869 5870 5872 5874 5876 5878 5880 5880 5881 5883 5883 5883 5884 5884 5884 5885 5885 5885 5885 5885 5884 5883 5883 5882
5851 5853 5855 5857 5859 5860 5860 5862 5863 5866 5866 5868 5871 5873 5875 5876 5877 5879 5880 5881 5882 5882 5883 5883 5883 5884 5884 5884 5884 5884 5883 5883 5882
5849 5851 5852 5853 5855 5856 5857 5858 5859 5861 5863 5865 5867 5870 5871 5873 5874 5875 5877 5878 5879 5880 5880 5881 5882 5882 5883 5883 5883 5882 5883 5882 5882
5844 5846 5848 5849 5850 5851 5852 5853 5854 5856 5858 5859 5863 5866 5867 5869 5871 5872 5874 5874 5876 5876 5877 5878 5879 5879 5880 5881 5881 5881 5881 5881 5880
5839 5841 5843 5843 5845 5846 5847 5849 5850 5851 5852 5854 5856 5860 5862 5864 5866 5868 5869 5871 5872 5873 5873 5875 5876 5876 5877 5878 5879 5879 5879 5880 5879
5835 5836 5837 5839 5840 5841 5842 5843 5845 5846 5847 5848 5850 5853 5855 5858 5861 5863 5863 5866 5867 5869 5870 5871 5872 5873 5874 5875 5876 5876 5877 5877 5877
5832 5832 5832 5833 5834 5835 5836 5837 5837 5839 5842 5844 5845 5846 5849 5852 5856 5858 5858 5860 5862 5864 5865 5867 5868 5869 5870 5871 5872 5873 5874 5874 5875
5825 5826 5827 5828 5828 5828 5829 5830 5831 5832 5834 5836 5839 5839 5842 5844 5849 5851 5853 5855 5856 5858 5859 5861 5863 5864 5865 5866 5868 5868 5869 5870 5871
5817 5818 5819 5821 5822 5823 5823 5824 5824 5826 5826 5828 5831 5831 5833 5836 5839 5843 5845 5847 5850 5850 5853 5855 5857 5859 5860 5861 5862 5864 5864 5866 5866
5808 5809 5810 5812 5813 5814 5816 5817 5817 5818 5818 5820 5821 5824 5825 5827 5829 5834 5836 5838 5842 5843 5845 5848 5850 5852 5854 5855 5857 5858 5859 5860 5861
5800 5800 5801 5801 5802 5804 5805 5806 5807 5809 5810 5811 5813 5815 5815 5818 5819 5822 5827 5828 5831 5834 5836 5839 5842 5844 5846 5848 5850 5852 5854 5855 5856
5788 5789 5790 5791 5791 5792 5793 5795 5797 5799 5800 5802 5804 5804 5803 5807 5808 5810 5816 5819 5820 5823 5827 5830 5832 5835 5837 5839 5843 5845 5846 5849 5850
5775 5776 5777 5778 5780 5780 5781 5782 5785 5785 5788 5791 5793 5794 5792 5795 5796 5799 5802 5807 5811 5812 5816 5819 5822 5824 5828 5831 5834 5836 5839 5841 5843
5760 5761 5762 5763 5764 5766 5767 5768 5769 5772 5775 5776 5779 5782 5783 5782 5784 5787 5787 5793 5799 5801 5804 5808 5811 5814 5817 5821 5823 5826 5829 5832 5834
5743 5744 5746 5747 5748 5749 5751 5753 5755 5754 5758 5762 5765 5766 5769 5772 5770 5773 5775 5777 5783 5788 5791 5795 5799 5803 5806 5809 5812 5815 5818 5821 5824
5723 5726 5727 5728 5729 5730 5732 5734 5737 5739 5739 5744 5747 5751 5753 5754 5759 5761 5763 5767 5768 5774 5777 5781 5785 5790 5794 5798 5801 5803 5807 5809 5813
5701 5702 5705 5707 5708 5710 5711 5714 5717 5720 5722 5724 5727 5732 5735 5739 5743 5746 5751 5752 5755 5759 5764 5767 5772 5776 5782 5786 5789 5792 5795 5799 5802
5676 5679 5680 5682 5684 5686 5689 5691 5694 5697 5701 5704 5705 5712 5716 5717 5725 5732 5737 5737 5741 5745 5748 5752 5758 5763 5768 5773 5777 5778 5783 5786 5790
5648 5650 5651 5653 5656 5659 5663 5666 5669 5672 5676 5680 5685 5687 5694 5697 5700 5713 5718 5722 5726 5732 5733 5738 5741 5748 5754 5761 5764 5765 5770 5774 5778